Terminal Aerodrome Forecast
Issued by NWS

Home | Current Version | Previous Version | Graphics & Text | Print | Product List | Glossary Off
Versions: 1 2 3 4 5 6 7 8 9 10 11 12 13 14 15 16 17 18 19

000
FTUS43 KDDC 220523
TAFGCK
TAF
KGCK 220523Z 2206/2306 01008KT P6SM OVC025
     FM220800 35005KT 5SM BR BKN009
     FM221200 35008KT P6SM BKN020
     FM221400 04005KT P6SM BKN040=

USA.gov is the U.S. government's official web portal to all federal, state and local government web resources and services.